| time (UTC) | temp C | wind direction | speed KPH | gust KPH | rain 1hr cm | rain 24hr cm | rain mn cm | humidity % | barometer mb |
| 20260510184126 | 27 | 274 | 6.4 | 8.0 | 0.00 | 0.00 | 0.00 | 35 | 1016.6 |
| 20260510183124 | 27 | 311 | 3.2 | 6.4 | 0.00 | 0.00 | 0.00 | 35 | 1016.7 |
| 20260510182116 | 28 | 190 | 0.0 | 3.2 | 0.00 | 0.00 | 0.00 | 39 | 1016.8 |
| 20260510181129 | 27 | 194 | 1.6 | 6.4 | 0.00 | 0.00 | 0.00 | 37 | 1017.0 |
| 20260510180123 | 27 | 108 | 1.6 | 6.4 | 0.00 | 0.00 | 0.00 | 37 | 1017.0 |
| 20260510175117 | 27 | 265 | 1.6 | 8.0 | 0.00 | 0.00 | 0.00 | 38 | 1017.1 |
| 20260510174131 | 27 | 163 | 1.6 | 8.0 | 0.00 | 0.00 | 0.00 | 37 | 1017.1 |
| 20260510173124 | 26 | 253 | 3.2 | 8.0 | 0.00 | 0.00 | 0.00 | 38 | 1017.2 |
| 20260510172120 | 26 | 264 | 1.6 | 8.0 | 0.00 | 0.00 | 0.00 | 38 | 1017.2 |
| 20260510171134 | 27 | 207 | 1.6 | 8.0 | 0.00 | 0.00 | 0.00 | 38 | 1017.2 |
| 20260510170148 | 27 | 271 | 1.6 | 6.4 | 0.00 | 0.00 | 0.00 | 41 | 1017.4 |
| 20260510165117 | 27 | 206 | 1.6 | 6.4 | 0.00 | 0.00 | 0.00 | 39 | 1017.3 |
| 20260510164134 | 26 | 120 | 1.6 | 6.4 | 0.00 | 0.00 | 0.00 | 42 | 1017.4 |
| 20260510163126 | 26 | 171 | 4.8 | 8.0 | 0.00 | 0.00 | 0.00 | 40 | 1017.4 |
| 20260510162139 | 25 | 257 | 1.6 | 6.4 | 0.00 | 0.00 | 0.00 | 41 | 1017.5 |
| 20260510161152 | 26 | 163 | 1.6 | 3.2 | 0.00 | 0.00 | 0.00 | 42 | 1017.6 |
| 20260510160127 | 25 | 181 | 1.6 | 6.4 | 0.00 | 0.00 | 0.00 | 41 | 1017.7 |
| 20260510155118 | 25 | 27 | 1.6 | 4.8 | 0.00 | 0.00 | 0.00 | 48 | 1017.6 |
| 20260510154131 | 25 | 259 | 1.6 | 6.4 | 0.00 | 0.00 | 0.00 | 50 | 1017.6 |
| 20260510153125 | 25 | 253 | 0.0 | 6.4 | 0.00 | 0.00 | 0.00 | 49 | 1017.6 |
| 20260510152122 | 24 | 205 | 1.6 | 6.4 | 0.00 | 0.00 | 0.00 | 48 | 1017.6 |
| 20260510151155 | 24 | 194 | 1.6 | 1.6 | 0.00 | 0.00 | 0.00 | 57 | 1017.6 |
| 20260510150126 | 24 | 192 | 0.0 | 3.2 | 0.00 | 0.00 | 0.00 | 57 | 1017.7 |
| 20260510145119 | 23 | 228 | 0.0 | 3.2 | 0.00 | 0.00 | 0.00 | 57 | 1017.8 |
| 20260510144131 | 23 | 223 | 1.6 | 3.2 | 0.00 | 0.00 | 0.00 | 55 | 1017.7 |
| 20260510143124 | 22 | 223 | 0.0 | 3.2 | 0.00 | 0.00 | 0.00 | 61 | 1017.7 |
| 20260510142117 | 22 | 221 | 0.0 | 1.6 | 0.00 | 0.00 | 0.00 | 70 | 1017.6 |
| 20260510141153 | 21 | 221 | 0.0 | 3.2 | 0.00 | 0.00 | 0.00 | 71 | 1017.7 |
| 20260510140125 | 20 | 221 | 0.0 | 1.6 | 0.00 | 0.00 | 0.00 | 76 | 1017.6 |
| 20260510135134 | 20 | 258 | 0.0 | 1.6 | 0.00 | 0.00 | 0.00 | 80 | 1017.7 |
| 20260510134126 | 19 | 253 | 0.0 | 3.2 | 0.00 | 0.00 | 0.00 | 81 | 1017.6 |
| 20260510133122 | 18 | 252 | 0.0 | 1.6 | 0.00 | 0.00 | 0.00 | 84 | 1017.6 |
| 20260510132116 | 17 | 252 | 0.0 | 1.6 | 0.00 | 0.00 | 0.00 | 88 | 1017.6 |
| 20260510131128 | 17 | 264 | 0.0 | 3.2 | 0.00 | 0.00 | 0.00 | 91 | 1017.7 |
| 20260510130125 | 16 | 255 | 0.0 | 0.0 | 0.00 | 0.00 | 0.00 | 94 | 1017.6 |
| 20260510125115 | 16 | 255 | 0.0 | 0.0 | 0.00 | 0.00 | 0.00 | 94 | 1017.5 |
| 20260510124127 | 16 | 255 | 0.0 | 1.6 | 0.00 | 0.00 | 0.00 | 94 | 1017.4 |
| 20260510123120 | 16 | 255 | 0.0 | 3.2 | 0.00 | 0.00 | 0.00 | 96 | 1017.4 |
| 20260510122137 | 15 | 254 | 0.0 | 1.6 | 0.00 | 0.00 | 0.00 | 97 | 1017.2 |
| 20260510121128 | 14 | 253 | 0.0 | 0.0 | 0.00 | 0.00 | 0.00 | 96 | 1016.9 |
| 20260510120121 | 14 | 253 | 0.0 | 0.0 | 0.00 | 0.00 | 0.00 | 96 | 1016.7 |
| 20260510115131 | 13 | 253 | 0.0 | 0.0 | 0.00 | 0.00 | 0.00 | 95 | 1016.4 |
| 20260510114127 | 13 | 260 | 0.0 | 0.0 | 0.00 | 0.00 | 0.00 | 94 | 1016.4 |
| 20260510113118 | 13 | 260 | 0.0 | 0.0 | 0.00 | 0.00 | 0.00 | 94 | 1016.3 |
| 20260510112129 | 13 | 260 | 0.0 | 0.0 | 0.00 | 0.00 | 0.00 | 94 | 1016.1 |
| 20260510111141 | 13 | 260 | 0.0 | 0.0 | 0.00 | 0.00 | 0.00 | 93 | 1015.9 |
| 20260510110135 | 13 | 260 | 0.0 | 0.0 | 0.00 | 0.00 | 0.00 | 93 | 1015.6 |
| 20260510105125 | 13 | 260 | 0.0 | 0.0 | 0.00 | 0.00 | 0.00 | 93 | 1015.5 |
| 20260510104118 | 13 | 259 | 0.0 | 0.0 | 0.00 | 0.00 | 0.00 | 93 | 1015.5 |
| 20260510103116 | 13 | 262 | 0.0 | 0.0 | 0.00 | 0.00 | 0.00 | 94 | 1015.3 |
| 20260510102130 | 13 | 262 | 0.0 | 0.0 | 0.00 | 0.00 | 0.00 | 94 | 1015.1 |
| 20260510101122 | 13 | 262 | 0.0 | 0.0 | 0.00 | 0.00 | 0.00 | 94 | 1015.0 |
| 20260510100115 | 13 | 204 | 0.0 | 0.0 | 0.00 | 0.00 | 0.00 | 94 | 1014.8 |
| 20260510095130 | 13 | 204 | 0.0 | 0.0 | 0.00 | 0.00 | 0.00 | 93 | 1014.8 |
| 20260510094123 | 13 | 204 | 0.0 | 0.0 | 0.00 | 0.00 | 0.00 | 93 | 1014.7 |
| 20260510093115 | 13 | 204 | 0.0 | 0.0 | 0.00 | 0.00 | 0.00 | 94 | 1014.6 |
| 20260510092129 | 13 | 204 | 0.0 | 0.0 | 0.00 | 0.00 | 0.00 | 93 | 1014.6 |
| 20260510091125 | 13 | 204 | 0.0 | 0.0 | 0.00 | 0.00 | 0.00 | 93 | 1014.5 |
| 20260510090117 | 14 | 204 | 0.0 | 0.0 | 0.00 | 0.00 | 0.00 | 93 | 1014.4 |
| 20260510085148 | 14 | 204 | 0.0 | 0.0 | 0.00 | 0.00 | 0.00 | 93 | 1014.3 |
| 20260510084124 | 14 | 204 | 0.0 | 0.0 | 0.00 | 0.00 | 0.00 | 92 | 1014.3 |
| 20260510083117 | 15 | 204 | 0.0 | 0.0 | 0.00 | 0.00 | 0.00 | 93 | 1014.3 |
| 20260510082130 | 15 | 204 | 0.0 | 0.0 | 0.00 | 0.00 | 0.00 | 93 | 1014.2 |
| 20260510081124 | 15 | 204 | 0.0 | 0.0 | 0.00 | 0.00 | 0.00 | 93 | 1014.0 |
| 20260510080119 | 15 | 204 | 0.0 | 0.0 | 0.00 | 0.00 | 0.00 | 93 | 1014.0 |
| 20260510075130 | 15 | 204 | 0.0 | 0.0 | 0.00 | 0.00 | 0.00 | 93 | 1013.9 |
| 20260510074122 | 15 | 204 | 0.0 | 0.0 | 0.00 | 0.00 | 0.00 | 93 | 1013.9 |
| 20260510073120 | 15 | 204 | 0.0 | 0.0 | 0.00 | 0.00 | 0.00 | 93 | 1014.0 |
| 20260510072133 | 15 | 204 | 0.0 | 1.6 | 0.00 | 0.00 | 0.00 | 93 | 1014.0 |
| 20260510071125 | 15 | 204 | 0.0 | 3.2 | 0.00 | 0.00 | 0.00 | 93 | 1013.9 |
| 20260510070132 | 15 | 204 | 1.6 | 3.2 | 0.00 | 0.00 | 0.00 | 94 | 1013.8 |
| 20260510065127 | 15 | 202 | 0.0 | 1.6 | 0.00 | 0.00 | 0.00 | 93 | 1013.8 |
| 20260510064120 | 15 | 202 | 0.0 | 0.0 | 0.00 | 0.00 | 0.00 | 93 | 1013.8 |
| 20260510063154 | 15 | 202 | 0.0 | 0.0 | 0.00 | 0.00 | 0.00 | 93 | 1013.9 |
| 20260510062127 | 15 | 202 | 0.0 | 0.0 | 0.00 | 0.00 | 0.00 | 93 | 1013.9 |
| 20260510061124 | 15 | 202 | 0.0 | 0.0 | 0.00 | 0.00 | 0.00 | 92 | 1013.8 |
| 20260510060116 | 15 | 202 | 0.0 | 0.0 | 0.00 | 0.00 | 0.00 | 93 | 1013.8 |
| 20260510055148 | 15 | 202 | 0.0 | 0.0 | 0.00 | 0.00 | 0.00 | 92 | 1013.9 |
| 20260510054119 | 15 | 202 | 0.0 | 0.0 | 0.00 | 0.00 | 0.00 | 92 | 1013.9 |
| 20260510053115 | 15 | 202 | 0.0 | 0.0 | 0.00 | 0.00 | 0.00 | 93 | 1014.1 |
| 20260510052128 | 15 | 202 | 0.0 | 0.0 | 0.00 | 0.00 | 0.00 | 92 | 1014.1 |
| 20260510051120 | 15 | 202 | 0.0 | 0.0 | 0.00 | 0.00 | 0.00 | 92 | 1014.1 |
| 20260510050116 | 15 | 202 | 0.0 | 0.0 | 0.00 | 0.00 | 0.00 | 92 | 1014.3 |
| 20260510045126 | 16 | 202 | 0.0 | 1.6 | 0.00 | 0.00 | 0.00 | 93 | 1014.3 |
| 20260510044120 | 16 | 202 | 0.0 | 0.0 | 0.00 | 0.00 | 0.00 | 93 | 1014.4 |
| 20260510043132 | 15 | 202 | 0.0 | 0.0 | 0.00 | 0.00 | 0.00 | 92 | 1014.2 |
| 20260510042128 | 15 | 202 | 0.0 | 1.6 | 0.00 | 0.00 | 0.00 | 92 | 1014.4 |
| 20260510041140 | 16 | 202 | 1.6 | 3.2 | 0.00 | 0.00 | 0.00 | 92 | 1014.4 |
| 20260510040131 | 16 | 202 | 0.0 | 0.0 | 0.00 | 0.00 | 0.00 | 91 | 1014.3 |
| 20260510035120 | 16 | 202 | 0.0 | 3.2 | 0.00 | 0.00 | 0.00 | 91 | 1014.4 |
| 20260510034118 | 16 | 202 | 0.0 | 3.2 | 0.00 | 0.00 | 0.00 | 91 | 1014.3 |
| 20260510033150 | 16 | 202 | 0.0 | 0.0 | 0.00 | 0.00 | 0.00 | 91 | 1014.3 |
| 20260510032121 | 16 | 202 | 0.0 | 0.0 | 0.00 | 0.00 | 0.00 | 91 | 1014.3 |
| 20260510031115 | 16 | 202 | 0.0 | 0.0 | 0.00 | 0.00 | 0.00 | 90 | 1014.3 |
| 20260510030127 | 16 | 202 | 0.0 | 0.0 | 0.00 | 0.00 | 0.00 | 90 | 1014.2 |
| 20260510025117 | 16 | 202 | 0.0 | 0.0 | 0.00 | 0.00 | 0.00 | 90 | 1014.2 |
| 20260510024129 | 16 | 202 | 0.0 | 0.0 | 0.00 | 0.00 | 0.00 | 89 | 1014.2 |
| 20260510023126 | 16 | 202 | 0.0 | 0.0 | 0.00 | 0.00 | 0.00 | 89 | 1014.0 |
| 20260510022118 | 17 | 202 | 0.0 | 0.0 | 0.00 | 0.00 | 0.00 | 89 | 1013.9 |
| 20260510021151 | 17 | 202 | 0.0 | 0.0 | 0.00 | 0.00 | 0.00 | 89 | 1013.9 |
| 20260510020144 | 17 | 202 | 0.0 | 0.0 | 0.00 | 0.00 | 0.00 | 88 | 1013.9 |
| 20260510015117 | 17 | 202 | 0.0 | 0.0 | 0.00 | 0.00 | 0.00 | 88 | 1013.7 |
| 20260510014149 | 17 | 202 | 0.0 | 0.0 | 0.00 | 0.00 | 0.00 | 88 | 1013.7 |
| 20260510013121 | 17 | 202 | 0.0 | 0.0 | 0.00 | 0.00 | 0.00 | 87 | 1013.5 |
| 20260510012134 | 17 | 202 | 0.0 | 0.0 | 0.00 | 0.00 | 0.00 | 86 | 1013.3 |
| 20260510011130 | 18 | 202 | 0.0 | 0.0 | 0.00 | 0.00 | 0.00 | 85 | 1013.0 |
| 20260510010121 | 18 | 202 | 0.0 | 0.0 | 0.00 | 0.00 | 0.00 | 85 | 1012.9 |
| 20260510005152 | 18 | 202 | 0.0 | 0.0 | 0.00 | 0.00 | 0.00 | 84 | 1012.6 |
| 20260510004126 | 18 | 202 | 0.0 | 0.0 | 0.00 | 0.00 | 0.00 | 83 | 1012.4 |
| 20260510003121 | 19 | 202 | 0.0 | 0.0 | 0.00 | 0.00 | 0.00 | 82 | 1012.5 |
| 20260510002135 | 20 | 202 | 0.0 | 0.0 | 0.00 | 0.00 | 0.00 | 82 | 1012.4 |
| 20260510001126 | 20 | 202 | 0.0 | 1.6 | 0.00 | 0.00 | 0.00 | 80 | 1012.3 |
| 20260510000123 | 20 | 280 | 0.0 | 1.6 | 0.00 | 0.00 | 0.00 | 80 | 1012.2 |
| 20260509235134 | 20 | 284 | 0.0 | 3.2 | 0.00 | 0.00 | 0.00 | 79 | 1012.3 |
| 20260509234126 | 20 | 284 | 1.6 | 3.2 | 0.00 | 0.00 | 0.00 | 78 | 1012.3 |
| 20260509233120 | 21 | 284 | 1.6 | 3.2 | 0.00 | 0.00 | 0.00 | 78 | 1012.2 |
| 20260509232117 | 21 | 284 | 0.0 | 1.6 | 0.00 | 0.00 | 0.00 | 78 | 1011.8 |
| 20260509231130 | 21 | 11 | 0.0 | 3.2 | 0.00 | 0.00 | 0.00 | 77 | 1011.9 |
| 20260509230122 | 21 | 277 | 1.6 | 3.2 | 0.00 | 0.00 | 0.00 | 77 | 1011.9 |
| 20260509225117 | 21 | 290 | 0.0 | 6.4 | 0.00 | 0.00 | 0.00 | 77 | 1011.7 |
| 20260509224132 | 21 | 184 | 0.0 | 3.2 | 0.00 | 0.00 | 0.00 | 77 | 1011.6 |
| 20260509223124 | 22 | 157 | 1.6 | 4.8 | 0.00 | 0.00 | 0.00 | 75 | 1011.6 |
| 20260509222117 | 22 | 266 | 1.6 | 6.4 | 0.00 | 0.00 | 0.00 | 75 | 1011.6 |
| 20260509221135 | 22 | 340 | 1.6 | 6.4 | 0.00 | 0.00 | 0.00 | 75 | 1011.7 |
| 20260509220127 | 22 | 168 | 1.6 | 6.4 | 0.00 | 0.00 | 0.00 | 74 | 1011.7 |
| 20260509215137 | 22 | 254 | 1.6 | 8.0 | 0.00 | 0.00 | 0.00 | 74 | 1011.5 |
| 20260509214148 | 21 | 265 | 0.0 | 6.4 | 0.00 | 0.00 | 0.00 | 74 | 1011.6 |
| 20260509213125 | 21 | 161 | 1.6 | 8.0 | 0.00 | 0.00 | 0.00 | 75 | 1011.6 |
| 20260509212118 | 21 | 95 | 3.2 | 9.7 | 0.00 | 0.00 | 0.00 | 75 | 1011.6 |
| 20260509211131 | 21 | 300 | 3.2 | 8.0 | 0.00 | 0.00 | 0.00 | 75 | 1011.6 |
| 20260509210123 | 21 | 257 | 1.6 | 8.0 | 0.00 | 0.00 | 0.00 | 75 | 1011.5 |
| 20260509205117 | 21 | 250 | 1.6 | 8.0 | 0.00 | 0.00 | 0.00 | 74 | 1011.3 |
| 20260509204150 | 21 | 268 | 1.6 | 8.0 | 0.00 | 0.00 | 0.00 | 73 | 1011.4 |
| 20260509203141 | 21 | 278 | 1.6 | 9.7 | 0.00 | 0.00 | 0.00 | 74 | 1011.5 |
| 20260509202132 | 21 | 298 | 4.8 | 9.7 | 0.00 | 0.00 | 0.00 | 75 | 1011.5 |
| 20260509201128 | 21 | 249 | 1.6 | 6.4 | 0.00 | 0.00 | 0.00 | 76 | 1011.6 |
| 20260509200120 | 21 | 171 | 3.2 | 8.0 | 0.00 | 0.00 | 0.00 | 75 | 1011.7 |
| 20260509195150 | 21 | 128 | 1.6 | 9.7 | 0.00 | 0.00 | 0.00 | 76 | 1011.8 |
| 20260509194124 | 21 | 284 | 1.6 | 8.0 | 0.00 | 0.00 | 0.00 | 77 | 1012.0 |
| 20260509193121 | 20 | 274 | 4.8 | 8.0 | 0.00 | 0.00 | 0.00 | 78 | 1012.0 |
| 20260509192134 | 20 | 304 | 0.0 | 3.2 | 0.00 | 0.00 | 0.00 | 79 | 1012.1 |
| 20260509191146 | 20 | 269 | 1.6 | 3.2 | 0.00 | 0.00 | 0.00 | 79 | 1012.1 |
| 20260509190122 | 20 | 266 | 1.6 | 8.0 | 0.00 | 0.00 | 0.00 | 79 | 1012.2 |
| 20260509185131 | 20 | 355 | 3.2 | 8.0 | 0.00 | 0.00 | 0.00 | 79 | 1012.1 |